Tracking 35331 objects as of 16-Sep-2026
HD Live streaming from Space Station
objects crossing your sky now

COSMOS 886 DEB


COSMOS 886 DEB is no longer on orbit


NORAD ID: 9815
Int'l Code: 1976-126AB
Launch date: December 27, 1976
Source: Commonwealth of Independent States (former USSR) (CIS)
Launch site: TYURATAM MISSILE AND SPACE COMPLEX (TTMTR)
Decay date: 1999-10-04

Note: This is SATELLITE DEBRIS
Your satellite tracking list
Your tracking list is empty




NASA's NSSDC Master Catalog

Two Line Element Set (TLE):
1 09815U 76126AB  99277.38914462 +.22628419 +69933-5 +32683-2 0  9999
2 09815 065.7338 023.2115 0012091 264.2995 097.8669 16.34084403142141
Source of the keplerian elements: AFSPC